Regional Weather Roundup
Issued by NWS

Home | Current Version | Previous Version | Graphics & Text | Print | Product List | Glossary On
Versions: 1 2 3 4 5 6 7 8 9 10 11 12 13 14 15 16 17 18 19 20 21 22 23 24 25 26 27
000
ASUS45 KCYS 241810
RWRWY

WYOMING REGIONAL WEATHER ROUNDUP
NATIONAL WEATHER SERVICE CHEYENNE WY
1200 PM MDT WED AUG 24 2016

NOTE:  "FAIR" INDICATES FEW OR NO CLOUDS BELOW 12,000 FEET
WITH NO SIGNIFICANT WEATHER AND/OR OBSTRUCTIONS TO VISIBILITY.

WYZ001-241900-
YELLOWSTONE NATIONAL PARK

CITY           SKY/WX    TMP DP  RH WIND       PRES   REMARKS
LK YELLOWSTONE   N/A     58  28  32 SE7       30.33F
6HR MIN TEMP:  30; 6HR MAX TEMP:  58;

W YELLOWSTONE  NOT AVBL

$$
WYZ002>013-054>058-071-098>099-241900-
NORTHERN WYOMING

CITY           SKY/WX    TMP DP  RH WIND       PRES   REMARKS
JACKSON        SUNNY     61  25  25 CALM      30.25F SMOKE
CODY           FAIR      59  45  58 NE16      30.29F
GREYBULL       FAIR      68  39  34 NE7       30.22F
6HR MIN TEMP:  50; 6HR MAX TEMP:  68;

WORLAND        FAIR      68  37  32 NW10      30.22F
6HR MIN TEMP:  48; 6HR MAX TEMP:  68;

SHERIDAN       FAIR      66  43  43 NW15      30.25F
6HR MIN TEMP:  45; 6HR MAX TEMP:  67;

BUFFALO        FAIR      64  41  42 NW10      30.28F
6HR MIN TEMP:  49; 6HR MAX TEMP:  64;

GILLETTE       FAIR      64  44  48 NW7       30.25F
6HR MIN TEMP:  47; 6HR MAX TEMP:  65;

HULETT         FAIR      64  43  45 NW7       30.25F
NEWCASTLE      FAIR      66  37  34 NW14G21   30.24F

$$
WYZ014>020-022>026-101>103-241900-
CENTRAL WYOMING

CITY           SKY/WX    TMP DP  RH WIND       PRES   REMARKS
BIG PINEY      FAIR      64  23  21 CALM      30.26F
6HR MIN TEMP:  30; 6HR MAX TEMP:  65;

PINEDALE       FAIR      63  19  19 SW8       30.27F
DUBOIS         FAIR      59  30  33 SE12G21   30.29F
LANDER         FAIR      64  36  35 CALM      30.25F
6HR MIN TEMP:  43; 6HR MAX TEMP:  64;

RIVERTON       FAIR      65  35  33 E10G18    30.26F
6HR MIN TEMP:  47; 6HR MAX TEMP:  65;

CASPER         FAIR      63  37  38 E14       30.25F
6HR MIN TEMP:  41; 6HR MAX TEMP:  65;

DOUGLAS        FAIR      68  34  28 CALM      30.25F
6HR MIN TEMP:  46; 6HR MAX TEMP:  69;


$$
WYZ021-027>030-104>119-241900-
SOUTHERN WYOMING

CITY           SKY/WX    TMP DP  RH WIND       PRES   REMARKS
EVANSTON       FAIR      69  14  12 W18G30    30.27S
6HR MIN TEMP:  46; 6HR MAX TEMP:  70;

FORT BRIDGER   FAIR      73  17  11 W20G29    30.28F
ROCK SPRINGS   FAIR      67  22  18 VRB6      30.25F
6HR MIN TEMP:  45; 6HR MAX TEMP:  67;

DIXON          FAIR      71  39  31 SW6       30.25F
RAWLINS        FAIR      65  32  29 VRB3      30.26F
6HR MIN TEMP:  42; 6HR MAX TEMP:  66;

SARATOGA       FAIR      70  36  28 NW8       30.26F
LARAMIE        FAIR      65  41  41 S22       30.27F
6HR MIN TEMP:  52; 6HR MAX TEMP:  67;

CHEYENNE       FAIR      60  44  55 S16       30.29F
6HR MIN TEMP:  55; 6HR MAX TEMP:  61; 6HR PCP:  0.03;

TORRINGTON     FAIR      68  40  35 SE12      30.21F
6HR MIN TEMP:  59; 6HR MAX TEMP:  68;

PINE BLUFFS    FAIR      64  41  42 SE15G23   30.25S

$$




USA.gov is the U.S. government's official web portal to all federal, state and local government web resources and services.